West Plains, MO

9:54 AM CDT on May 27, 2017 (GMT -0500)
West Plains Municipal

Weather History for KUNO - January, 2012

Change the Weather History Date:

Monday, January 9, 2012

  Actual Average Record
Temperature  
Mean Temperature 42 °F 34 °F  
Max Temperature 54 °F 44 °F 72 °F (1957)
Min Temperature 29 °F 23 °F -2 °F (1962)
Degree Days  
Heating Degree Days 23 31  
Month to date heating degree days 197 279  
Since 1 July heating degree days 1797 2024  
Cooling Degree Days 0 0  
Month to date cooling degree days 0 0  
Year to date cooling degree days 0 0  
Moisture  
Dew Point 26 °F    
Average Humidity 60    
Maximum Humidity 92    
Minimum Humidity 28    
Precipitation  
Precipitation 0.00 in 0.06 in 1.46 in (1954)
Month to date precipitation T 0.59  
Year to date precipitation T 0.59  
Sea Level Pressure  
Sea Level Pressure 30.20 in    
Wind  
Wind Speed 3 mph (NNE)    
Max Wind Speed 12 mph    
Max Gust Speed 15 mph    
Visibility 9 miles    
Events      
T = Trace of Precipitation, MM = Missing Value Source: NWS Daily Summary

Daily Weather History Graph

Daily Weather History Graph

Search for Another Location

Airport or City:

Trip Planner

Search our weather history database for the weather conditions in past years. The results will help you decide how hot, cold, wet, or windy it might be!

Date:

Astronomy

Jan. 09, 2012 Rise Set
Actual Time 7:20 AM CST 5:08 PM CST
Civil Twilight 6:52 AM CST 5:37 PM CST
Nautical Twilight 6:20 AM CST 6:09 PM CST
Astronomical Twilight 5:48 AM CST 6:40 PM CST
Moon 5:53 PM CST (1/9) 7:22 AM CST (1/9)
Length of Visible Light 10h 44m
Length of Day
9h 47m
Full, 100% of the Moon is Illuminated
Jan 9
Full
Jan 16
Last Quarter
Jan 23
New
Jan 30
First Quarter
Feb 7
Full

Hourly Weather History & Observations

Time (CST) Temp. Windchill Dew Point Humidity Pressure Visibility Wind Dir Wind Speed Gust Speed Precip Events Conditions
12:53 AM 39.9 °F 36.7 °F 32.0 °F 73% 30.22 in 10.0 mi ENE 4.6 mph - N/A   Overcast
1:50 AM 39.2 °F 35.9 °F 32.0 °F 75% 30.22 in 10.0 mi NE 4.6 mph - N/A   Overcast
1:53 AM 39.9 °F 37.8 °F 32.0 °F 73% 30.23 in 10.0 mi NE 3.5 mph - N/A   Overcast
2:53 AM 39.0 °F 33.4 °F 32.0 °F 76% 30.22 in 10.0 mi North 8.1 mph - N/A   Overcast
3:06 AM 37.4 °F 32.8 °F 30.2 °F 75% 30.20 in 10.0 mi North 5.8 mph - N/A   Mostly Cloudy
3:18 AM 37.4 °F 32.8 °F 30.2 °F 75% 30.20 in 10.0 mi North 5.8 mph - N/A   Scattered Clouds
3:53 AM 35.1 °F 31.0 °F 30.0 °F 82% 30.21 in 10.0 mi NNE 4.6 mph - N/A   Clear
4:53 AM 35.1 °F 31.0 °F 28.9 °F 78% 30.23 in 10.0 mi North 4.6 mph - N/A   Clear
5:53 AM 33.1 °F 28.7 °F 28.9 °F 85% 30.22 in 9.0 mi North 4.6 mph - N/A   Clear
6:53 AM 32.0 °F 27.5 °F 28.9 °F 88% 30.22 in 9.0 mi North 4.6 mph - N/A   Clear
7:53 AM 30.9 °F - 28.0 °F 89% 30.23 in 6.0 mi Calm Calm - N/A   Clear
8:53 AM 34.0 °F 29.8 °F 30.0 °F 85% 30.26 in 7.0 mi North 4.6 mph - N/A   Clear
10:25 AM 46.4 °F 43.5 °F 28.4 °F 50% 30.23 in 3.0 mi North 5.8 mph - N/A   Haze
10:53 AM 46.9 °F - 26.1 °F 44% 30.24 in 10.0 mi NNE 3.5 mph - N/A   Clear
11:53 AM 51.1 °F - 24.1 °F 35% 30.18 in 10.0 mi NNE 4.6 mph - N/A   Clear
12:53 PM 53.1 °F - 21.9 °F 30% 30.17 in 9.0 mi North 6.9 mph - N/A   Clear
2:53 PM 53.1 °F - 21.0 °F 29% 30.17 in 10.0 mi NW 3.5 mph - N/A   Clear
3:53 PM 53.1 °F - 21.0 °F 29% 30.16 in 10.0 mi NNW 4.6 mph - N/A   Clear
4:53 PM 50.0 °F - 21.0 °F 32% 30.16 in 10.0 mi Calm Calm - N/A   Clear
6:53 PM 43.0 °F - 21.0 °F 42% 30.18 in 10.0 mi Calm Calm - N/A   Clear
7:53 PM 37.9 °F - 21.9 °F 53% 30.17 in 10.0 mi Calm Calm - N/A   Clear
8:53 PM 39.0 °F - 21.9 °F 50% 30.16 in 10.0 mi Calm Calm - N/A   Clear
9:53 PM 34.0 °F - 23.0 °F 64% 30.15 in 10.0 mi Calm Calm - N/A   Clear
10:53 PM 36.0 °F - 23.0 °F 59% 30.15 in 8.0 mi Calm Calm - N/A   Clear
11:53 PM 33.1 °F - 23.0 °F 66% 30.16 in 10.0 mi Calm Calm - N/A   Clear